Lake Tuscaloosa Weather Center

Moon Phase Calendar



Lake Tuscaloosa Water Level
Online Cameras

 


      

Current Conditions in Mariners Cove
2/22/2024 3:00:25 PM

74°F
Feels Like 73
Clouds
Humidity
53%
Pressure
29.8"
Wind
3 mph (SW)
Dew Point
56°F
UV Index
1/10 (Low)
Visibility
6 mi

Hourly Forecast

Date & Time Thu, Feb 22
3:00 PM
Thu, Feb 22
4:00 PM
Thu, Feb 22
5:00 PM
Thu, Feb 22
6:00 PM
Thu, Feb 22
7:00 PM
Thu, Feb 22
8:00 PM
Thu, Feb 22
9:00 PM
Thu, Feb 22
10:00 PM
Thu, Feb 22
11:00 PM
Fri, Feb 23
12:00 AM
Fri, Feb 23
1:00 AM
Fri, Feb 23
2:00 AM
Fri, Feb 23
3:00 AM
Fri, Feb 23
4:00 AM
Fri, Feb 23
5:00 AM
Fri, Feb 23
6:00 AM
Fri, Feb 23
7:00 AM
Fri, Feb 23
8:00 AM
Fri, Feb 23
9:00 AM
Fri, Feb 23
10:00 AM
Fri, Feb 23
11:00 AM
Fri, Feb 23
12:00 PM
Fri, Feb 23
1:00 PM
Fri, Feb 23
2:00 PM
Fri, Feb 23
3:00 PM
Fri, Feb 23
4:00 PM
Fri, Feb 23
5:00 PM
Fri, Feb 23
6:00 PM
Fri, Feb 23
7:00 PM
Fri, Feb 23
8:00 PM
Fri, Feb 23
9:00 PM
Fri, Feb 23
10:00 PM
Fri, Feb 23
11:00 PM
Sat, Feb 24
12:00 AM
Sat, Feb 24
1:00 AM
Sat, Feb 24
2:00 AM
Sat, Feb 24
3:00 AM
Sat, Feb 24
4:00 AM
Sat, Feb 24
5:00 AM
Sat, Feb 24
6:00 AM
Sat, Feb 24
7:00 AM
Sat, Feb 24
8:00 AM
Sat, Feb 24
9:00 AM
Sat, Feb 24
10:00 AM
Sat, Feb 24
11:00 AM
Sat, Feb 24
12:00 PM
Sat, Feb 24
1:00 PM
Sat, Feb 24
2:00 PM
Condition
Clouds

Clouds

Clouds

Clouds

Rain

Rain

Rain

Rain

Rain

Rain

Rain

Rain

Clouds

Clouds

Clouds

Rain

Clouds

Clouds

Clouds

Clouds

Clouds

Clouds

Clear

Clear

Clear

Clear

Clear

Clear

Clear

Clear

Clear

Clear

Clear

Clear

Clear

Clear

Clear

Clear

Clear

Clear

Clear

Clear

Clear

Clear

Clear

Clear

Clear

Clear
Temperature 74°F73°F72°F70°F67°F64°F62°F61°F60°F60°F60°F59°F58°F58°F58°F57°F56°F56°F56°F58°F62°F64°F66°F66°F66°F65°F61°F58°F56°F54°F53°F52°F50°F49°F48°F48°F47°F47°F47°F46°F46°F51°F55°F58°F60°F62°F62°F62°F
Feels Like 73°F73°F71°F69°F67°F64°F62°F61°F60°F60°F60°F59°F58°F58°F57°F57°F56°F56°F55°F57°F60°F63°F64°F64°F64°F63°F60°F56°F54°F53°F51°F50°F49°F48°F46°F46°F44°F44°F44°F43°F44°F49°F53°F56°F58°F59°F60°F60°F
Cloudiness 79%80%82%85%96%100%92%90%85%86%82%55%37%30%40%50%100%100%100%94%77%64%2%3%3%4%4%4%0%0%0%0%0%0%0%0%0%1%2%1%0%0%0%0%0%0%4%5%
Visibility 6 mi6 mi6 mi6 mi6 mi6 mi6 mi6 mi6 mi6 mi6 mi6 mi6 mi6 mi6 mi6 mi6 mi6 mi6 mi6 mi6 mi6 mi6 mi6 mi6 mi6 mi6 mi6 mi6 mi6 mi6 mi6 mi6 mi6 mi6 mi6 mi6 mi6 mi6 mi6 mi6 mi6 mi6 mi6 mi6 mi6 mi6 mi6 mi
Precipitation 0%0%6%18%59%68%84%95%100%100%98%100%80%80%79%99%43%27%14%7%7%3%0%0%0%0%0%0%0%0%0%0%0%0%0%0%0%0%0%0%0%0%0%0%0%0%0%0%
Humidity 53%54%57%62%72%81%87%91%94%95%95%94%97%97%95%91%90%87%86%73%56%45%40%39%41%46%52%58%64%70%74%75%77%76%75%74%75%76%76%77%79%67%55%46%40%37%36%37%
Dew Point 56°F56°F56°F56°F58°F58°F58°F58°F58°F58°F58°F57°F57°F57°F56°F54°F53°F52°F51°F49°F46°F42°F40°F40°F41°F43°F43°F43°F43°F44°F44°F43°F43°F42°F40°F39°F39°F39°F39°F39°F40°F40°F39°F37°F35°F35°F35°F36°F
Pressure 29.8"29.8"29.77"29.77"29.74"29.74"29.71"29.71"29.71"29.68"29.68"29.65"29.65"29.65"29.68"29.71"29.74"29.8"29.8"29.83"29.83"29.83"29.8"29.8"29.8"29.83"29.83"29.85"29.88"29.91"29.94"29.97"29.94"29.94"29.97"29.94"29.94"29.94"29.97"30"30.03"30.06"30.06"30.06"30.06"30.06"30.03"30.06"
Wind Speed 12.2 mph12.1 mph11.5 mph10.3 mph10.6 mph10.9 mph10.1 mph8.8 mph8.6 mph8.6 mph7.4 mph5.6 mph5.5 mph7.1 mph8.3 mph8.6 mph9.1 mph9.4 mph9.8 mph9.9 mph9.7 mph10.2 mph10.2 mph10.7 mph10.6 mph10.6 mph10 mph7.3 mph6.9 mph7.1 mph6.1 mph5.6 mph4.2 mph4 mph4.7 mph4.7 mph5.2 mph5.3 mph5.9 mph6 mph5.5 mph7.6 mph9.3 mph10.6 mph11.7 mph12 mph12.2 mph12.5 mph
Wind
Direction
214°
SW
216°
SW
218°
SW
214°
SW
214°
SW
210°
SSW
212°
SSW
213°
SSW
209°
SSW
216°
SW
222°
SW
242°
WSW
259°
W
274°
W
297°
WNW
311°
NW
316°
NW
318°
NW
327°
NNW
342°
NNW
343°
NNW
336°
NNW
328°
NNW
319°
NW
311°
NW
304°
NW
298°
WNW
295°
WNW
297°
WNW
301°
WNW
301°
WNW
299°
WNW
289°
WNW
275°
W
271°
W
252°
WSW
253°
WSW
272°
W
272°
W
282°
WNW
283°
WNW
301°
WNW
313°
NW
316°
NW
315°
NW
312°
NW
314°
NW
312°
NW

Daily Forecast

Date High Low Precip. Humidity
Today
Feb 22

Rain
74 °F
52 °F
100%
53%
Friday
Feb 23

Rain
66 °F
50 °F
100%
45%
Saturday
Feb 24

Clear
62 °F
45 °F
0%
37%
Sunday
Feb 25

Clear
68 °F
42 °F
0%
44%
Monday
Feb 26

Clouds
67 °F
49 °F
0%
67%
Tuesday
Feb 27

Clouds
76 °F
59 °F
0%
59%
Wednesday
Feb 28

Clouds
71 °F
61 °F
8%
84%
Thursday
Feb 29

Rain
67 °F
42 °F
100%
43%
Friday
Mar 1

Clouds
61 °F
35 °F
0%
40%
Saturday
Mar 2

Clouds
65 °F
44 °F
0%
47%
Sunday
Mar 3

Rain
65 °F
52 °F
43%
63%
Monday
Mar 4

Clouds
67 °F
54 °F
0%
57%
Tuesday
Mar 5

Clouds
68 °F
55 °F
1%
56%
Wednesday
Mar 6

Rain
71 °F
52 °F
24%
52%
Thursday
Mar 7

Clouds
74 °F
59 °F
3%
41%
Friday
Mar 8

Clear
61 °F
44 °F
0%
27%

Temperature 8-14 Day Outlook



Precipitation 8-14 Day Outlook




Quick Links
Lake Tuscaloosa News
Lake Tuscaloosa Photos
Lake Tuscaloosa Videos




About Us
Contact Us
Site Map
Search Site
Advertise With Us
   
www.LakeTuscaloosa.info
THE LAKE TUSCALOOSA WEBSITE

Copyright 2024, Lakes Online
Privacy    |    Legal